metlocid,date_time,avg_wspd,std_wspd,min_wspd,max_wspd,n_wspd,n_comments
HOEM,11/1/87,2.808515287,1.136927408,0.76,7.96,229,0
HOEM,12/1/87,3.167756409,1.197417424,0.99,6.05,156,0
HOEM,1/1/88,,,,,0,0
HOEM,2/1/88,,,,,0,0
HOEM,3/1/88,,,,,0,0
HOEM,4/1/88,,,,,0,0
HOEM,5/1/88,,,,,0,0
HOEM,6/1/88,,,,,0,0
HOEM,7/1/88,,,,,0,0
HOEM,8/1/88,,,,,0,0
HOEM,9/1/88,,,,,0,0
HOEM,10/1/88,,,,,0,0
HOEM,11/1/88,,,,,0,0
HOEM,12/1/88,2.952413801,0.950177668,1.34,5.41,116,0
HOEM,1/1/89,2.789032265,1.018182342,0.94,6.2,186,0
HOEM,2/1/89,1.864166673,1.144249056,0.57,6.44,168,0
HOEM,3/1/89,2.058010751,1.833069747,0.61,9.91,186,0
HOEM,4/1/89,2.584111112,2.690540179,0.62,10.34,180,0
HOEM,5/1/89,2.525376352,2.67259146,0.57,11.95,186,0
HOEM,6/1/89,1.717611115,1.786758672,0.58,9.58,180,0
HOEM,7/1/89,3.881505369,3.558170032,0.68,13.77,186,0
HOEM,8/1/89,3.052956989,3.346625958,0.65,12.52,186,0
HOEM,9/1/89,3.487722226,3.363301761,0.76,13.3,180,0
HOEM,10/1/89,4.377258046,3.424843622,0.81,15.39,186,0
HOEM,11/1/89,3.21077778,1.666008338,0.65,8.26,180,0
HOEM,12/1/89,2.959086017,1.044176502,1.11,7.36,186,0
HOEM,1/1/90,2.674354845,1.046414144,0.89,5.85,186,0
HOEM,2/1/90,2.049821426,1.425200264,0.57,7.58,168,0
HOEM,3/1/90,2.349301077,2.381464481,0.47,10.39,186,0
HOEM,4/1/90,3.234166665,3.216817341,0.56,12.33,180,0
HOEM,5/1/90,1.917634408,2.18018069,0.59,10.48,186,0
HOEM,6/1/90,2.936611119,2.894108096,0.66,10.8,180,0
HOEM,7/1/90,1.738333329,1.667241741,0.63,9.24,186,0
HOEM,8/1/90,3.355698934,3.719429465,0.56,13.93,186,0
HOEM,9/1/90,2.890222221,3.723351624,0.66,16.3,180,0
HOEM,10/1/90,2.148440856,1.802739738,0.45,9.88,186,0
HOEM,11/1/90,2.481666673,1.331055997,0.67,8.45,180,0
HOEM,12/1/90,3.032473131,1.016575782,0.96,6.3,186,0
HOEM,1/1/91,2.736182798,1.145801714,0.83,6.86,186,0
HOEM,2/1/91,2.724166666,2.131552077,0.5,10.7,168,0
HOEM,3/1/91,2.775483874,2.638196567,0.46,11.15,186,0
HOEM,4/1/91,3.30638888,3.67992207,0.45,16.91,180,0
HOEM,5/1/91,2.984677434,3.334531249,0.45,12.33,186,0
HOEM,6/1/91,3.219499999,3.374618592,0.51,16.2,180,0
HOEM,7/1/91,2.467473136,2.860762854,0.48,11.55,186,0
HOEM,8/1/91,2.366182795,2.4806845,0.53,10.17,186,0
HOEM,9/1/91,4.316666652,3.573910886,0.52,13.02,180,0
HOEM,10/1/91,2.387204301,1.968632047,0.56,8.78,186,0
HOEM,11/1/91,3.604499994,1.949021894,0.67,8.45,180,0
HOEM,12/1/91,2.907311835,1.254389609,0.67,7.95,186,0
HOEM,1/1/92,2.835215051,1.625518188,0.47,9.37,186,0
HOEM,2/1/92,1.726436777,1.246736754,0.46,6.72,174,0
HOEM,3/1/92,2.31118279,2.36543411,0.48,10.43,186,0
HOEM,4/1/92,2.107944453,2.385666645,0.55,11.57,180,0
HOEM,5/1/92,1.662204307,1.665657905,0.45,10.45,186,0
HOEM,6/1/92,2.689388888,2.692082569,0.63,10.87,180,0
HOEM,7/1/92,3.575161296,3.248492269,0.55,12.17,186,0
HOEM,8/1/92,3.07478494,3.390342289,0.54,16.41,186,0
HOEM,9/1/92,3.814000013,3.750352798,0.46,13.14,180,0
HOEM,10/1/92,1.679408603,1.591644812,0.48,9.52,186,0
HOEM,11/1/92,2.88394444,1.846125171,0.66,10.87,180,0
HOEM,12/1/92,3.027903228,1.181157661,0.72,7.37,186,0
HOEM,1/1/93,2.674301072,1.525897076,0.6,10.24,186,0
HOEM,2/1/93,3.337916673,2.419520886,0.55,10.04,168,0
HOEM,3/1/93,2.489193552,2.499022275,0.45,10.23,186,0
HOEM,4/1/93,3.199000003,3.220749088,0.45,14.38,180,0
HOEM,5/1/93,1.946451615,2.558080853,0.47,12.35,186,0
HOEM,6/1/93,4.67544444,4.218247322,0.55,14.36,180,0
HOEM,7/1/93,4.687903233,4.17417162,0.56,13.97,186,0
HOEM,8/1/93,2.519462354,2.950120398,0.5,13.4,186,0
HOEM,9/1/93,2.87727777,3.466106724,0.52,19.06,180,0
HOEM,10/1/93,3.285698916,3.798705127,0.45,16.99,186,0
HOEM,11/1/93,2.57044445,1.268559141,0.51,6.53,180,0
HOEM,12/1/93,2.555709791,1.463398546,0.1,9.8,1909,7
HOEM,1/1/94,2.568102733,1.2586977,0,8,2414,7
HOEM,2/1/94,1.661607149,1.704425569,0.3,9.1,224,0
HOEM,3/1/94,1.805241934,2.334205402,0.3,9.9,248,0
HOEM,4/1/94,2.270416669,2.639069171,0.3,10.6,240,0
HOEM,5/1/94,2.672983864,3.462423484,0.3,18.9,248,2
HOEM,6/1/94,3.292500004,3.749726078,0.4,13.4,240,0
HOEM,7/1/94,2.789919351,3.188113539,0.5,13.3,248,0
HOEM,8/1/94,2.526209686,3.086787597,0.4,12.9,248,0
HOEM,9/1/94,2.164999999,3.097647887,0.5,20.8,240,1
HOEM,10/1/94,2.46370968,2.648300488,0.2,12.2,248,0
HOEM,11/1/94,2.802797201,2.132377619,0.3,10.5,143,870
HOEM,12/1/94,3.075000004,1.594952825,0,9.5,252,2232
HOEM,1/1/95,2.547904888,1.300986835,0,7.4,2229,1554
HOEM,2/1/95,2.997931547,2.978793738,0,15.08,2016,12
HOEM,3/1/95,1.885922938,2.652108646,0,13.6,2232,32
HOEM,4/1/95,2.253555554,3.396331391,0,15.82,2160,11
HOEM,5/1/95,2.393709682,3.61753795,0,18.86,2232,28
HOEM,6/1/95,3.575231484,4.414259115,0,16.87,2160,11
HOEM,7/1/95,1.907625446,2.753018538,0,13.34,2232,3
HOEM,8/1/95,3.818982973,4.662176835,0,16.04,2232,5
HOEM,9/1/95,2.493333328,3.365293412,0,14.52,2160,16
HOEM,10/1/95,2.531357529,3.05286397,0,13.75,2232,9
HOEM,11/1/95,3.552690748,2.590218278,0,11.81,2215,4
HOEM,12/1/95,2.832553765,1.429771046,0,8.19,2976,2068
HOEM,1/1/96,3.097324992,1.789719906,0,10,2957,2281
HOEM,2/1/96,2.044504309,1.711678712,0,8.1,2784,15
HOEM,3/1/96,2.66454973,3.521384842,0,19.3,2976,51
HOEM,4/1/96,2.699340282,3.394623625,0,15.1,2880,12
HOEM,5/1/96,1.637466401,2.580967999,0,12.2,2976,64
HOEM,6/1/96,2.918020834,3.832183721,0,14.4,2880,12
HOEM,7/1/96,3.339650542,4.021570465,0,14.3,2976,28
HOEM,8/1/96,3.163575268,3.628256589,0,15.7,2976,14
HOEM,9/1/96,2.045625005,2.984948052,0,14.5,2880,18
HOEM,10/1/96,2.139549735,2.617917259,0,13,2976,29
HOEM,11/1/96,2.629374999,1.850080483,0,12.9,2880,3
HOEM,12/1/96,2.905981178,1.480968743,0,11.5,2976,2
HOEM,1/1/97,2.420712844,1.292528676,0,7.5,2974,6
HOEM,2/1/97,2.158928571,2.319897088,0,13.9,2688,17
HOEM,3/1/97,1.076915325,1.443281052,0,8.8,2976,26
HOEM,4/1/97,1.486006946,2.294529342,0,13.2,2880,22
HOEM,5/1/97,4.345997288,4.248591164,0,16.6,2948,11
HOEM,6/1/97,3.771215283,4.309257375,0,16.2,2880,12
HOEM,7/1/97,2.601255095,3.511255136,0,14.8,2948,24
HOEM,8/1/97,2.508971777,3.454602115,0,17.2,2976,14
HOEM,9/1/97,2.913854173,3.526699501,0,13.7,2880,10
HOEM,10/1/97,3.550134408,3.630233453,0,16.1,2976,21
HOEM,11/1/97,3.768823942,2.433285738,0,13.1,2874,1
HOEM,12/1/97,2.917271504,1.463463401,0,7.5,2976,2
HOEM,1/1/98,2.585853492,1.471731891,0,8.8,2976,24
HOEM,2/1/98,2.54549851,2.643517007,0,12.9,2688,24
HOEM,3/1/98,1.992806248,2.723984365,0,11.5,2947,36
HOEM,4/1/98,2.702500004,3.652957617,0,15.8,2880,12
HOEM,5/1/98,3.29280914,4.081470572,0,17.8,2976,1
HOEM,6/1/98,4.028194447,4.296832386,0,19,2880,2
HOEM,7/1/98,3.328830652,3.984460846,0,20.8,2976,5
HOEM,8/1/98,2.950571237,4.47146241,0,22.1,2976,5
HOEM,9/1/98,1.542500002,2.448393226,0,15.3,2880,17
HOEM,10/1/98,3.102923384,3.403041863,0,16.1,2976,10
HOEM,11/1/98,2.979506775,2.119925239,0,11.3,2879,6
HOEM,12/1/98,3.793413975,2.337566853,0.1,12.8,2976,0
HOEM,1/1/99,2.631384408,1.557661328,0,8.7,2976,0
HOEM,2/1/99,1.85814732,1.565676876,0,9.9,2688,0
HOEM,3/1/99,1.634341401,2.329195793,0,10.8,2976,0
HOEM,4/1/99,1.808958338,2.599255036,0,11.9,2880,0
HOEM,5/1/99,2.469489252,3.30495374,0,15,2976,0
HOEM,6/1/99,2.59697917,3.376023573,0,14.5,2880,0
HOEM,7/1/99,3.535416671,3.846744218,0,14.3,2976,0
HOEM,8/1/99,2.277385755,3.234642734,0,12.9,2976,0
HOEM,9/1/99,2.722291671,3.527197406,0,14.2,2880,0
HOEM,10/1/99,3.075126051,4.05346495,0,22.8,2975,1
HOEM,11/1/99,3.056145832,1.971487561,0.2,10.7,2880,0
HOEM,12/1/99,3.137499997,1.56233127,0,11,2976,0
HOEM,1/1/00,2.97160618,1.631510173,0,9.4,2976,1
HOEM,2/1/00,2.643678158,2.156723997,0,12.8,2784,2
HOEM,3/1/00,2.217271508,3.041780342,0,14.9,2976,5
HOEM,4/1/00,2.328229167,2.867663248,0,13.4,2880,7
HOEM,5/1/00,1.56478495,2.119307756,0,11.6,2976,5
HOEM,6/1/00,1.920659723,2.724444594,0,13.4,2880,3
HOEM,7/1/00,4.790456994,4.518824456,0,19.2,2976,1
HOEM,8/1/00,4.276492543,4.56970747,0,15.6,2948,31
HOEM,9/1/00,3.584652781,4.352145978,0,18.7,2880,3
HOEM,10/1/00,1.801041669,2.342971382,0,13.8,2976,13
HOEM,11/1/00,3.796315605,2.425910563,0,11.8,2877,4
HOEM,12/1/00,3.0578629,1.338349168,0.2,8.4,2976,0
HOEM,1/1/01,2.518481181,1.269283329,0,9.1,2976,2
HOEM,2/1/01,2.198735119,1.733437837,0,10.3,2688,7
HOEM,3/1/01,1.548252687,2.435818898,0,17.5,2976,23
HOEM,4/1/01,2.557534727,3.319190498,0,14.9,2880,12
HOEM,5/1/01,3.383870968,3.969648959,0,15.7,2976,12
HOEM,6/1/01,3.781250006,3.984925036,0,16,2880,3
HOEM,7/1/01,3.693682798,4.259182123,0,14.8,2976,6
HOEM,8/1/01,1.643346777,2.253214941,0,11.8,2976,17
HOEM,9/1/01,2.184895838,2.81367999,0,13.8,2880,6
HOEM,10/1/01,3.103259413,3.301933149,0,14,2976,13
HOEM,11/1/01,2.979756944,1.791505745,0,10,2880,1
HOEM,12/1/01,3.241028223,1.805042464,0,12.5,2976,2824
HOEM,1/1/02,3.139762469,2.483819658,0,15.3,2947,1410
HOEM,2/1/02,2.442373511,1.957311795,0,9.9,2688,16
HOEM,3/1/02,2.514616935,2.812014686,0,12.5,2976,9
HOEM,4/1/02,3.048020836,3.649243914,0,15.7,2880,22
HOEM,5/1/02,3.35416667,3.473797642,0,13.2,2976,8
HOEM,6/1/02,1.954583334,2.678361925,0,14.6,2880,4
HOEM,7/1/02,2.450907261,3.41462192,0,15.7,2976,9
HOEM,8/1/02,2.38400538,3.291833476,0,15.3,2976,19
HOEM,9/1/02,2.151701394,2.861287267,0,13,2880,7
HOEM,10/1/02,1.79012097,2.092060185,0,11.2,2976,23
HOEM,11/1/02,2.834409719,2.32340882,0,17,2880,2
HOEM,12/1/02,2.991834675,1.364103006,0.1,8.8,2976,0
HOEM,1/1/03,2.721841395,1.542631202,0,8.9,2976,1
HOEM,2/1/03,1.930431548,1.409470165,0,9.7,2688,10
HOEM,3/1/03,1.924395165,2.657957067,0,12.3,2976,36
HOEM,4/1/03,1.274930558,2.093605766,0,14,2880,28
HOEM,5/1/03,4.256250007,4.0096046,0,14.3,2976,17
HOEM,6/1/03,1.944062503,2.363553182,0,14.3,2880,3
HOEM,7/1/03,3.924798391,3.883643353,0,13.7,2976,4
HOEM,8/1/03,1.863944895,2.421003422,0,12.9,2976,3
HOEM,9/1/03,3.623993059,4.151643265,0,18.2,2880,5
HOEM,10/1/03,3.509072585,3.223740465,0,15.6,2976,6
HOEM,11/1/03,2.582847221,1.607516712,0,9.2,2880,13
HOEM,12/1/03,2.794590052,1.594691076,0,9.7,2976,1
HOEM,1/1/04,2.536100839,1.192430563,0,7.5,2975,6
HOEM,2/1/04,1.677873565,1.281611708,0,6.7,2784,13
HOEM,3/1/04,1.167506722,1.494416257,0,11.9,2976,28
HOEM,4/1/04,1.688437501,2.203675995,0,12.1,2880,7
HOEM,5/1/04,3.021135755,3.695287962,0,14.1,2976,18
HOEM,6/1/04,4.561111119,5.330307634,0,22.7,2880,5
HOEM,7/1/04,2.189146508,2.778976262,0,14.4,2976,7
HOEM,8/1/04,3.550436831,4.528948519,0.1,22.2,2976,0
HOEM,9/1/04,1.771250005,2.224911811,0,11.6,2880,9
HOEM,10/1/04,2.194086025,2.685724226,0,12.9,2976,22
HOEM,11/1/04,3.217326387,2.090444144,0,10.2,2880,2
HOEM,12/1/04,2.628326609,1.47415175,0,11.2,2976,13
HOEM,1/1/05,2.326545698,1.178245796,0,7,2976,3
HOEM,2/1/05,1.991741072,1.647440146,0,8.4,2688,22
HOEM,3/1/05,1.734072583,2.091314175,0,9.8,2976,12
HOEM,4/1/05,1.218333335,1.527932805,0,11.8,2880,10
HOEM,5/1/05,3.054704306,3.290558647,0,13.3,2976,5
HOEM,6/1/05,3.187743058,3.973665367,0,15.2,2880,6
HOEM,7/1/05,2.634408605,3.878632547,0,21.5,2976,8
HOEM,8/1/05,2.975638443,3.631571357,0,18,2976,7
HOEM,9/1/05,2.245694448,2.757281348,0,15.7,2880,2
HOEM,10/1/05,3.550907263,3.293602544,0,14.6,2976,1
HOEM,11/1/05,2.984305551,1.812786068,0,10,2880,1
HOEM,12/1/05,2.773353488,1.347365546,0,9.7,2976,3
HOEM,1/1/06,2.496236556,1.270772656,0,9.6,2976,4
HOEM,2/1/06,1.813058037,1.49590082,0,8.2,2688,22
HOEM,3/1/06,1.846169357,2.366840702,0,17.1,2976,30
HOEM,4/1/06,1.526875003,2.228304756,0,14.1,2880,30
HOEM,5/1/06,2.155241935,2.801429295,0,17.6,2976,22
HOEM,6/1/06,3.65652778,3.917636634,0,15.3,2880,8
HOEM,7/1/06,1.807022854,2.653351982,0,16,2976,13
HOEM,8/1/06,3.067842744,3.325595796,0,13,2976,20
HOEM,9/1/06,3.399270834,3.90995774,0,13.7,2880,20
HOEM,10/1/06,1.611592745,1.936706908,0,10.2,2976,40
HOEM,11/1/06,2.085729168,1.499473508,0,9.8,2880,11
HOEM,12/1/06,3.122513438,1.567526724,0.2,11.4,2976,0
HOEM,1/1/07,2.661458333,1.584164203,0,8.9,2976,11
HOEM,2/1/07,2.133630951,1.575002407,0,9.8,2688,10
HOEM,3/1/07,2.07106855,2.395147685,0,11.4,2976,16
HOEM,4/1/07,2.674131951,3.624738576,0,16,2880,20
HOEM,5/1/07,3.098353493,3.928115495,0,19.9,2976,25
HOEM,6/1/07,3.6046875,3.481463178,0.1,16.3,2880,0
HOEM,7/1/07,3.924126347,3.905729802,0,13.7,2976,7
HOEM,8/1/07,3.838004039,4.052986529,0,18.7,2976,14
HOEM,9/1/07,3.573784723,3.664967534,0,16.1,2880,8
HOEM,10/1/07,2.037600808,2.260650792,0,11.9,2976,28
HOEM,11/1/07,2.446006945,1.999982118,0,11.9,2880,10
HOEM,12/1/07,2.916369747,1.422354056,0,8.8,2975,2921
HOEM,1/1/08,2.589616935,1.311153085,0,7.1,2976,2649
HOEM,2/1/08,2.528053158,1.813892078,0,8.9,2784,4
HOEM,3/1/08,1.440557798,2.037305407,0,14.3,2976,64
HOEM,4/1/08,2.335659728,2.988369711,0,11.9,2880,24
HOEM,5/1/08,2.65672043,3.308114061,0,13.9,2976,5
HOEM,6/1/08,3.763020835,3.897663275,0,20,2880,7
HOEM,7/1/08,2.43057796,3.288895369,0,14.4,2976,7
HOEM,8/1/08,1.866364247,2.387170403,0,14.3,2976,15
HOEM,9/1/08,4.890659723,3.639831112,0.1,14.8,2880,0
HOEM,10/1/08,1.865322582,1.957832904,0,9.7,2976,29
HOEM,11/1/08,2.840798609,1.829646271,0,11.6,2880,4
HOEM,12/1/08,3.125537635,1.602084688,0,9.8,2976,4
HOEM,1/1/09,2.341061825,1.390273806,0,10,2976,4
HOEM,2/1/09,1.539583333,1.192294499,0,8.8,2688,16
HOEM,3/1/09,1.229603497,1.520272191,0,9.2,2976,22
HOEM,4/1/09,3.389965284,3.595124257,0,15.2,2880,11
HOEM,5/1/09,2.76619624,3.327960456,0,13.7,2976,7
HOEM,6/1/09,3.430208339,3.756133895,0,14,2880,8
HOEM,7/1/09,2.503528225,2.975683685,0,12.4,2976,7
HOEM,8/1/09,2.868212367,3.348380913,0,14.4,2976,3
HOEM,9/1/09,3.892673616,4.261102022,0,16.6,2880,4
HOEM,10/1/09,1.988205646,2.104771369,0,11.3,2976,13
HOEM,11/1/09,2.803993055,2.31568523,0,12.2,2880,10
HOEM,12/1/09,2.626142469,1.275349498,0,8.4,2976,1
HOEM,1/1/10,2.335080642,1.216629531,0,7.9,2976,8
HOEM,2/1/10,1.996056548,1.773536834,0,10.5,2688,30
HOEM,3/1/10,1.213810485,1.36337475,0,9.2,2976,59
HOEM,4/1/10,2.275138894,2.829808336,0,11.9,2880,26
HOEM,5/1/10,2.398487904,2.999400677,0,12,2976,30
HOEM,6/1/10,2.179687505,2.819964413,0,12.7,2880,21
HOEM,7/1/10,2.981653228,3.527891185,0,15.3,2976,16
HOEM,8/1/10,2.937836022,3.78426639,0,19,2976,6
HOEM,9/1/10,2.14288195,2.78439395,0,13.1,2880,17
HOEM,10/1/10,2.402419358,2.78755232,0,18.9,2976,20
HOEM,11/1/10,3.775686,2.552975754,0,19.6,2879,3
HOEM,12/1/10,3.282209866,2.176310123,0,16,2878,105
HOEM,1/1/11,2.19939516,1.155066138,0,7.8,2976,29
HOEM,2/1/11,2.19311756,2.187325425,0,11.4,2688,45
HOEM,3/1/11,2.204435486,2.654976712,0,12.3,2976,42
HOEM,4/1/11,3.095555558,3.760276786,0,16.2,2880,23
HOEM,5/1/11,2.821875,3.543726654,0,15.3,2976,36
HOEM,6/1/11,3.289652785,3.828234254,0,14.5,2880,23
HOEM,7/1/11,4.299159951,4.251079071,0,17,2976,20
HOEM,8/1/11,2.707291668,3.3228383,0,15.5,2976,24
HOEM,9/1/11,3.067395838,3.798632712,0,20.4,2880,16
HOEM,10/1/11,2.836391127,2.991086407,0,14.9,2976,7
HOEM,11/1/11,2.591631942,1.810371904,0,11.1,2880,2
HOEM,12/1/11,3.260181446,2.372109052,0,15.3,2976,6
HOEM,1/1/12,2.458066711,1.286536688,0,6.6,2938,7
HOEM,2/1/12,2.119809689,1.699400548,0,9,1156,5
HOEM,9/1/12,1.015950924,1.280958668,0,8.5,163,3
HOEM,10/1/12,1.194740688,1.163737592,0,9.5,1369,12
HOEM,11/1/12,2.480479332,1.770922084,0,12.4,2879,10
HOEM,12/1/12,2.403729837,1.149373028,0,6.6,2976,6
HOEM,1/1/13,2.424159945,1.433424869,0,7.3,2976,8
HOEM,2/1/13,1.852678573,2.00265554,0,10.4,2688,35
HOEM,3/1/13,1.381485218,1.760709351,0,10.9,2976,30
HOEM,4/1/13,2.315208337,3.064144279,0,15.3,2880,23
HOEM,5/1/13,2.839986564,3.449078391,0,13.3,2976,30
HOEM,6/1/13,2.30885417,2.801872809,0,11.3,2880,20
HOEM,7/1/13,1.914045701,2.809150284,0,13.5,2976,31
HOEM,8/1/13,2.934139788,3.912937876,0,23,2976,23
HOEM,9/1/13,3.696562498,4.09853691,0,18,2880,6
HOEM,10/1/13,1.694952896,2.241117274,0,11.4,2972,53
HOEM,11/1/13,2.800972224,2.08020136,0,10.2,2880,31
HOEM,12/1/13,2.860406585,1.32993061,0.1,8.76,2976,768
HOEM,1/1/14,2.6475168,2.020469062,0,12.84,2976,2976
HOEM,2/1/14,2.830825891,2.202573482,0,11.02,2688,2688
HOEM,3/1/14,2.254237231,2.494739439,0,10.51,2976,2976
HOEM,4/1/14,2.648600691,3.329316669,0,17.74,2880,2880
HOEM,5/1/14,2.293061156,2.962655772,0,13.76,2976,2976
HOEM,6/1/14,2.115899306,2.515883219,0,12.25,2880,2880
HOEM,7/1/14,1.649606855,2.233641867,0,11.47,2976,2976
HOEM,8/1/14,3.780984541,3.672728884,0,15.56,2976,2976
HOEM,9/1/14,3.838510421,3.77055156,0,13.28,2880,2880
HOEM,10/1/14,3.712016129,3.260176769,0,13.08,2976,2976
HOEM,11/1/14,1.639058641,1.066912606,0.01,6.52,648,648
HOEM,12/1/14,2.933448284,1.262815092,0.72,4.9,29,29
HOEM,1/1/15,2.778940981,1.528225013,0,9.22,2965,2965
HOEM,2/1/15,3.064843749,2.580913188,0,11.11,2688,2688
HOEM,3/1/15,1.42144825,1.884255261,0,12.16,2976,2976
HOEM,4/1/15,1.738603755,2.73066957,0,52.96,2077,2077
HOEM,5/1/15,1.598835052,2.536099244,0,17.56,2910,2910
HOEM,6/1/15,3.841631945,4.392537255,0,21.8,2880,2880
HOEM,7/1/15,3.303676073,4.022290102,0,16.75,2976,2976
HOEM,8/1/15,3.911028224,4.628457442,0,22.96,2976,2976
HOEM,9/1/15,3.678308884,4.219661021,0,17.71,2318,2318
HOEM,10/1/15,2.878652555,2.902966677,0,14.99,2976,2976
HOEM,11/1/15,3.109958246,2.032475853,0,12.74,2874,891
HOEM,12/1/15,3.435799733,1.967014192,0.14,15.44,2976,0
HOEM,1/1/16,3.080682123,1.748932496,0,10.75,2976,0
HOEM,2/1/16,3.190481323,2.788555469,0.01,13.3,2784,0
HOEM,3/1/16,1.976407929,2.520697105,0,13.85,2976,0
HOEM,4/1/16,2.818961806,3.51063733,0,14.18,2880,0
HOEM,5/1/16,4.343780247,5.340504913,0,24.94,2976,0
HOEM,6/1/16,1.882777776,2.525354263,0,13.9,2880,0
HOEM,7/1/16,1.720362903,2.874339923,0,14.71,2976,0
HOEM,8/1/16,2.891525535,3.958443704,0,24.46,2976,0
HOEM,9/1/16,2.594274303,3.58206494,0,15.17,2880,0
HOEM,10/1/16,2.332683339,2.645571721,0,12.28,2959,0
HOEM,11/1/16,2.250875,1.961494496,0,14.7,2880,0
HOEM,12/1/16,2.725897177,1.649623453,0,14.24,2976,0
HOEM,1/1/17,2.793612231,1.509888354,0,9.41,2976,0
HOEM,2/1/17,2.256302084,1.793129123,0.02,10.84,2688,0
HOEM,3/1/17,2.312866263,2.851058412,0,13.59,2976,0
HOEM,4/1/17,4.962312501,4.826079796,0,18.54,2880,0
HOEM,5/1/17,4.818524865,5.454602794,0,26.78,2976,0
HOEM,6/1/17,3.224434024,3.566719804,0,15.39,2880,0
HOEM,7/1/17,4.758991939,4.922209827,0,20.97,2976,0
HOEM,8/1/17,4.672728497,5.196881574,0,25.71,2976,0
HOEM,9/1/17,3.733583332,4.329170722,0,18.72,2880,0
HOEM,10/1/17,3.5850168,3.951126109,0.04,17.22,2976,0
HOEM,11/1/17,2.816135332,2.361346717,0,15.36,2867,0
HOEM,12/1/17,2.93176807,1.515752872,0.02,9.58,2975,0
HOEM,1/1/18,2.576738399,1.359506913,0,8.21,2974,0
HOEM,2/1/18,2.243508183,2.104960562,0,12.21,2688,0
HOEM,3/1/18,3.033941535,3.632717105,0,15.54,2976,0
HOEM,4/1/18,4.434517357,4.996540549,0.02,21.26,2880,0
HOEM,5/1/18,2.423702957,3.123996009,0,14.54,2976,0
HOEM,6/1/18,4.219545139,4.245270002,0,17.95,2880,0
HOEM,7/1/18,4.629374999,5.767351026,0.01,25.85,2976,0
HOEM,8/1/18,2.571720427,3.820507057,0,21.47,2976,0
HOEM,9/1/18,3.855284716,4.829313885,0,18.83,2880,0
HOEM,10/1/18,3.971454973,3.841427568,0,18.59,2976,0
HOEM,11/1/18,3.30101736,2.499260683,0,14.62,2880,0
HOEM,12/1/18,3.493372567,1.963615622,0.01,12.01,2974,0
HOEM,1/1/19,3.015325943,1.564991037,0,10.25,2976,0
HOEM,2/1/19,2.748255206,2.569464535,0,11.49,2688,0
HOEM,3/1/19,2.04872984,2.622766423,0,13.02,2976,0
HOEM,4/1/19,3.694118056,4.14395997,0,14.36,2880,0
HOEM,5/1/19,4.370285616,4.545235846,0,17.49,2976,0
HOEM,6/1/19,4.608531244,4.50978247,0,19.31,2880,0
HOEM,7/1/19,3.704459002,4.594203034,0,22.91,2976,0
HOEM,8/1/19,4.077688169,4.400490433,0.02,16.73,2976,0
HOEM,9/1/19,4.291225694,4.103468638,0,16.06,2880,0
HOEM,10/1/19,3.036979165,3.155664671,0,13.34,2976,0
HOEM,11/1/19,2.994364583,1.983853967,0.06,11.18,2880,0
HOEM,12/1/19,3.03250912,1.716103105,0.02,10.67,2960,0
HOEM,1/1/20,2.802204636,1.339894523,0.046,8.82,2976,0
HOEM,2/1/20,2.244393681,2.022125293,0,11.15,2784,0
HOEM,3/1/20,3.425945226,4.2886489,0,16.24,2976,0
HOEM,4/1/20,4.109360761,4.465665115,0,19.5,2880,0
HOEM,5/1/20,3.450040995,3.97197908,0,14.07,2976,0
HOEM,6/1/20,3.874154516,4.234381413,0,15.65,2880,0
HOEM,7/1/20,3.168314516,3.929370198,0,16.99,2976,0
HOEM,8/1/20,2.994648856,3.784156517,0,21.15,2976,0
HOEM,9/1/20,3.202653127,3.692175061,0,15.17,2880,0
HOEM,10/1/20,3.800054104,3.860628039,0,14.87,2976,0
HOEM,11/1/20,2.510957639,1.792864061,0,10.31,2880,0
HOEM,12/1/20,3.121947583,1.642090258,0.027,9.12,2976,0
HOEM,1/1/21,3.093702287,1.985233598,0,13.2,2976,0
HOEM,2/1/21,2.444514508,2.369783386,0,12.33,2688,0
HOEM,3/1/21,2.859439518,3.562669903,0,14.52,2976,0
HOEM,4/1/21,2.126754171,2.894371894,0,14.17,2880,0
HOEM,5/1/21,3.524540659,4.023565703,0,14.68,2976,0
HOEM,6/1/21,4.440782644,4.979006366,0.003,23.4,2880,0
HOEM,7/1/21,3.41531519,4.072156207,0,15.64,2976,0
HOEM,8/1/21,3.315663645,4.668959653,0,22.36,2976,0
HOEM,9/1/21,4.210906253,4.465666334,0,19.65,2880,0
HOEM,10/1/21,4.238297383,4.181381445,0,21.84,2976,0
HOEM,11/1/21,2.654183145,1.993763155,0,11.44,2872,0
HOEM,12/1/21,3.573679891,1.845291921,0.007,10.56,2974,0
HOEM,1/1/22,2.876427756,1.709738461,0.015,12.18,2976,0
HOEM,2/1/22,2.422153273,1.91169126,0,11.63,2688,0
HOEM,3/1/22,3.335514449,3.991091287,0,21.64,2976,0
HOEM,4/1/22,2.846729863,3.898021312,0,17.43,2880,0
HOEM,5/1/22,4.989660284,4.714810702,0,19.58,2976,0
HOEM,6/1/22,3.125119096,3.70680185,0,15.3,2880,0
HOEM,7/1/22,6.248597447,5.24339086,0,20.51,2976,0
HOEM,8/1/22,3.790985894,4.142123497,0,15.14,2976,0
HOEM,9/1/22,3.596922919,4.238796582,0,16.5,2880,0
HOEM,10/1/22,3.53643011,3.98406342,0,22.74,2976,0
HOEM,11/1/22,2.437590577,1.612308007,0,9.09,2059,0